Liberia, Costa Rica

12:41 PM CST on February 26, 2017 (GMT -0600)
Liberia

Weather History for 78774 - November, 2012

Change the Weather History Date:

Sunday, November 25, 2012

  Actual Average Record
Temperature  
Mean Temperature 78 °F -  
Max Temperature 89 °F 87 °F - ()
Min Temperature 66 °F 72 °F - ()
Cooling Degree Days 12    
Growing Degree Days 28 (Base 50)    
Moisture  
Dew Point 62 °F    
Average Humidity 51    
Maximum Humidity 78    
Minimum Humidity 31    
Precipitation  
Precipitation 0.00 in - - ()
Sea Level Pressure  
Sea Level Pressure 29.84 in    
Wind  
Wind Speed 8 mph ()    
Max Wind Speed 21 mph    
Max Gust Speed -    
Visibility 12.0 miles    
Events      
T = Trace of Precipitation, MM = Missing Value Source: Averaged Metar Reports

Daily Weather History Graph

Daily Weather History Graph

Search for Another Location

Airport or City:

Trip Planner

Search our weather history database for the weather conditions in past years. The results will help you decide how hot, cold, wet, or windy it might be!

Date:

Astronomy

Nov. 25, 2012 Rise Set
Actual Time 5:42 AM CST 5:16 PM CST
Civil Twilight 5:19 AM CST 5:39 PM CST
Nautical Twilight 4:53 AM CST 6:05 PM CST
Astronomical Twilight 4:27 AM CST 6:30 PM CST
Moon 3:16 PM CST (11/25) 3:15 AM CST (11/25)
Length of Visible Light 12h 19m
Length of Day
11h 34m
Waxing Gibbous, 93% of the Moon is Illuminated
Nov 25
Waxing Gibbous
Nov 28
Full
Dec 6
Last Quarter
Dec 13
New
Dec 19
First Quarter

Hourly Weather History & Observations

Time (CST) Temp. Heat Index Dew Point Humidity Pressure Visibility Wind Dir Wind Speed Gust Speed Precip Events Conditions
6:00 AM 68 °F - 62 °F 74% 29.86 in 12 mi SSW 10.4 mph - -   Mostly Cloudy
6:00 AM 68.0 °F - 60.8 °F 78% 29.84 in - SSW 3.5 mph - N/A   Clear
7:00 AM 75.2 °F - 62.6 °F 65% 29.86 in - WSW 2.3 mph - N/A   Clear
8:00 AM 80.6 °F 81.5 °F 60.8 °F 51% 29.88 in - West 3.5 mph - N/A   Clear
9:00 AM 83 °F - 60 °F 36% 29.90 in 12 mi West 4.6 mph - -   Partly Cloudy
9:00 AM 82.4 °F 82.9 °F 60.8 °F 48% 29.89 in - West 4.6 mph - N/A   Clear
10:00 AM 84.2 °F 83.8 °F 59.0 °F 42% 29.87 in - West 6.9 mph - N/A   Clear
11:00 AM 87.8 °F 87.6 °F 60.8 °F 40% 29.85 in - SW 4.6 mph - N/A   Clear
12:00 PM 87 °F - 61 °F 31% 29.84 in 12 mi ENE 20.7 mph - -   Scattered Clouds
12:00 PM 87.8 °F 87.6 °F 60.8 °F 40% 29.83 in - ENE 20.7 mph - N/A   Clear
1:00 PM 87.8 °F 87.6 °F 60.8 °F 40% 29.81 in - East 17.3 mph - N/A   Clear
2:00 PM 89.6 °F 90.1 °F 62.6 °F 40% 29.78 in - NNE 18.4 mph - N/A   Clear
3:00 PM 86 °F - 64 °F 37% 29.79 in 12 mi East 17.3 mph - -   Clear
3:00 PM 86.0 °F 85.4 °F 59.0 °F 40% 29.78 in - East 17.3 mph - N/A   Clear
4:00 PM 84.2 °F 85.0 °F 62.6 °F 48% 29.79 in - East 17.3 mph - N/A   Clear
5:00 PM 80.6 °F 82.3 °F 64.4 °F 58% 29.79 in - East 13.8 mph - N/A   Clear
6:00 PM 78.8 °F - 64.4 °F 61% 29.83 in - South 3.5 mph - N/A   Clear
7:00 PM 77.0 °F - 66.2 °F 69% 29.86 in - SSE 5.8 mph - N/A   Clear
8:00 PM 75.2 °F - 66.2 °F 73% 29.88 in - West 8.1 mph - N/A   Clear